Weather observations for the past three days for
Laconia, Laconia Municipal Airport
Metric (Imperial)
Date Time (edt) Wind (kph) Vis. (km) Weather Sky Cond. Temperature (ºC) Relative Humidity Wind Chill (°C) Heat Index (°C) Pressure Precipitation (cm)
Air Dwpt 6 hour altimeter (cm) sea level (mb) 1 hr 3 hr 6 hr
Max. Min.
03 21:56 Calm 16.09 Overcast OVC014 18.3 17.2 93% 75.95 1012.5
03 20:56 E 7 16.09 Light Rain BKN016 BKN090 18.9 17.2 90% 75.95 1012.3
03 19:56 Calm 16.09 Overcast OVC016 19.4 17.2 20.6 18.9 87% 75.92 1012.1
03 18:56 E 7 16.09 Overcast OVC016 19.4 17.8 91% 75.92 1012.0
03 17:56 N 6 16.09 Overcast OVC016 20 17.2 84% 75.95 1012.3
03 16:56 Calm 16.09 Overcast OVC014 20 17.2 84% 75.95 1012.4
03 15:56 N 6 16.09 Overcast OVC012 20 16.7 81% 75.97 1012.7
03 14:56 Calm 16.09 Overcast OVC010 18.9 16.7 87% 76.02 1013.4
03 13:56 NW 7 16.09 Overcast OVC010 19.4 16.7 19.4 15.6 84% 76.05 1013.8
03 12:56 NW 6 16.09 Overcast OVC008 18.3 16.1 87% 76.07 1014.0
03 11:56 N 6 16.09 Overcast OVC006 17.2 15.6 90% 76.1 1014.5
03 10:56 Calm 16.09 Overcast OVC007 17.2 15.6 90% 76.15 1015.2
03 09:56 Calm 11.27 Overcast FEW007 OVC013 16.7 15.6 93% 76.17 1015.3
03 08:56 Calm 16.09 Overcast OVC013 15.6 15 96% 76.17 1015.5
03 07:56 Calm 16.09 Overcast OVC015 15.6 14.4 17.8 14.4 93% 76.23 1016.1 0.58
03 06:56 Calm 16.09 Overcast OVC016 14.4 13.9 97% 76.23 1016.1
03 05:56 Calm 11.27 Light Rain OVC021 14.4 13.9 97% 76.23 1016.2 0.03
03 04:56 S 9 16.09 Overcast FEW015 BKN025 OVC030 15.6 13.9 90% 76.28 1016.7 0.56
03 03:56 E 6 16.09 Light Rain FEW017 OVC033 15.6 14.4 93% 76.3 1017.1 0.56
03 02:56 S 7 16.09 Light Rain OVC044 17.8 14.4 81% 76.28 1016.6
03 01:56 SW 6 16.09 Overcast OVC050 17.8 15 18.9 17.2 84% 76.38 1018.1
03 00:56 Calm 16.09 Overcast OVC050 17.2 14.4 84% 76.4 1018.6
02 23:56 E 6 16.09 Overcast OVC032 17.8 13.9 78% 76.45 1019.0
02 22:56 SW 9 16.09 Overcast BKN038 OVC044 17.8 13.9 78% 76.5 1019.9
02 21:56 Vrbl 9 16.09 Overcast OVC040 17.8 12.8 73% 76.5 1019.9
02 20:56 NW 7 16.09 Overcast OVC040 18.3 11.7 66% 76.5 1020.0
02 19:56 Calm 16.09 Overcast OVC038 18.9 11.7 21.1 18.9 63% 76.48 1019.5
02 18:56 E 6 16.09 Overcast OVC040 19.4 12.2 63% 76.56 1020.5
02 17:56 SE 7 16.09 Overcast OVC040 20 12.2 61% 76.58 1021.0
02 16:56 SE 6 16.09 Overcast OVC040 20.6 11.7 57% 76.61 1021.3
02 15:56 S 17 16.09 Overcast OVC040 20.6 12.2 59% 76.61 1021.4
02 14:56 Vrbl 7 16.09 Overcast OVC041 20.6 12.8 61% 76.66 1022.0
02 13:56 Vrbl 6 16.09 Overcast FEW035 OVC048 21.1 12.8 21.1 16.1 59% 76.66 1021.9
02 12:56 S 11 14.48 Overcast OVC050 20 13.9 68% 76.68 1022.3
02 11:56 S 13 16.09 Overcast BKN025 BKN031 OVC050 19.4 13.9 71% 76.73 1022.8
02 10:56 SE 6 16.09 Overcast SCT019 BKN026 OVC050 18.9 15 78% 76.76 1023.2
02 09:56 E 9 16.09 Overcast FEW018 BKN037 OVC055 18.3 15 81% 76.71 1022.5
02 08:56 SE 6 16.09 Overcast OVC038 17.2 15.6 90% 76.71 1022.6
02 07:56 Calm 16.09 Overcast OVC046 16.1 15.6 17.2 15.6 97% 76.71 1022.5 0.05
02 06:56 Calm 16.09 Overcast OVC050 16.1 15 93% 76.68 1022.2
02 05:56 Calm 8.05 Light Rain Fog/Mist SCT038 OVC060 15.6 14.4 93% 76.66 1021.8 0.05
02 04:56 NE 6 16.09 Overcast SCT038 OVC070 16.1 14.4 90% 76.63 1021.6
02 03:56 W 7 16.09 Overcast FEW037 OVC048 16.1 14.4 90% 76.66 1021.8
02 02:56 Calm 16.09 Overcast BKN055 OVC065 17.2 14.4 84% 76.63 1021.3
02 01:56 W 6 16.09 Overcast FEW034 OVC070 17.2 14.4 20 17.2 84% 76.61 1021.0
02 00:56 Calm 16.09 Overcast OVC065 17.8 15.6 87% 76.58 1020.7
01 23:56 Calm 16.09 Overcast OVC070 17.8 15.6 87% 76.5 1020.0
01 22:56 Vrbl 7 16.09 Overcast BKN060 OVC070 17.8 15.6 87% 76.5 1019.8
01 21:56 SW 7 16.09 Overcast FEW055 BKN085 OVC100 18.3 15.6 84% 76.5 1019.7
01 20:56 SW 11 16.09 Overcast FEW015 BKN040 OVC055 19.4 16.1 81% 76.48 1019.7
01 19:56 S 11 16.09 Overcast OVC043 20 16.1 23.9 20 78% 76.43 1018.9
01 18:56 S 7 16.09 Overcast OVC047 21.1 15 68% 76.4 1018.7
01 17:56 SE 7 16.09 Overcast OVC043 21.7 13.9 61% 76.38 1018.2
01 16:56 SE 7 16.09 Overcast OVC042 22.2 13.3 57% 76.35 1017.9
01 15:56 SE 11 12.87 Overcast FEW040 BKN050 OVC070 23.3 12.8 52% 76.35 1017.7
01 14:56 E 15 16.09 Overcast OVC049 23.3 12.2 50% 76.35 1018.0
01 13:56 Vrbl 9 16.09 Overcast BKN040 OVC047 22.8 11.7 22.8 16.1 50% 76.35 1017.8
01 12:56 NE 9 16.09 Overcast OVC038 21.1 11.7 55% 76.33 1017.7
01 11:56 E 11 14.48 Fair CLR 20 11.1 57% 76.38 1018.2
01 10:56 NE 15 16.09 Mostly Cloudy BKN050 18.9 11.1 61% 76.4 1018.6
01 09:56 E 9 16.09 A Few Clouds FEW070 17.8 13.3 75% 76.38 1018.3
01 08:56 Calm 16.09 Light Rain FEW047 SCT060 16.1 14.4 90% 76.43 1019.1
01 07:56 W 7 16.09 Overcast FEW070 OVC120 16.7 13.9 16.7 12.8 84% 76.43 1018.8
01 06:56 Calm 16.09 Overcast OVC070 15.6 13.9 90% 76.38 1018.2
01 05:56 Calm 16.09 Overcast OVC070 15 13.3 90% 76.35 1017.6
01 04:56 Calm 16.09 Overcast BKN070 OVC100 13.3 12.8 97% 76.35 1017.8
01 03:56 Calm 16.09 Fair CLR 13.3 12.8 97% 76.35 1017.9
01 02:56 E 6 16.09 A Few Clouds FEW080 12.8 12.2 96% 76.35 1017.9
01 01:56 Calm 16.09 A Few Clouds FEW110 14.4 12.8 18.9 13.9 90% 76.38 1018.2
01 00:56 Calm 16.09 Overcast OVC110 15.6 13.3 86% 76.4 1018.5
31 23:56 Calm 16.09 Fair CLR 13.9 12.2 90% 76.38 1018.2
31 22:56 Calm 16.09 Fair CLR 15 12.8 87% 76.38 1018.3
Date Time (edt) Wind (kph) Vis. (km) Weather Sky Cond. Air Dwpt Max. Min. Relative Humidity Wind Chill (°C) Heat Index (°C) altimeter (cm) sea level (mb) 1 hr 3 hr 6 hr
6 hour
Temperature (ºC) Pressure Precipitation (cm)